Flag for Greenland Weather past 2 weeks in Ittoqqortoormiit, Greenland

Now
24 °F

Overcast.


Feels Like: 10 °F
Forecast: 21 / 28 °F
Wind: 18 mph from Northeast

Location: Scoresbysund

Current Time: May 22, 2015 at 11:03:15 AM

Latest Report: May 22, 2015 at 10:00 AM


Visibility: 31 mi

Pressure: 30.01 "Hg

Humidity: 65%

Dew point: 14 °F

Location of IttoqqortoormiitLocation

Historic Weather in Ittoqqortoormiit — Graph

°F

Ittoqqortoormiit temperature yesterday

Maximum temperature yesterday: 34 °F (at 1:00 PM)
Minimum temperature yesterday: 28 °F (at 11:00 PM)
Average temperature yesterday: 31 °F

Past Weeks' High & Low Weather Summary

 TemperatureHumidityPressure
High41 °F (May 18, 1:00 PM)100% (May 10, 3:00 AM)30.38 "Hg (May 10, 3:00 AM)
Low6 °F (May 8, 5:00 AM)37% (May 9, 2:00 PM)29.59 "Hg (May 16, 2:00 AM)
Average24 °F83%29.93 "Hg
* Reported May 7 9:00 AM — May 22 9:00 AM, Ittoqqortoormiit, Weather by CustomWeather, © 2015

Note: Actual official high and low records may vary slightly from our data, if they occured in-between our weather recording intervals... More about our weather records

Advertising

Ittoqqortoormiit weather history for previous 24 hours

 ConditionsComfort  
Time TempWeatherWind HumidityBarometerVisibility
9:00 AM
Fri, May 22
24 °FOvercast.15 mph72%30.01 "Hg31 mi
8:00 AM24 °FOvercast.12 mph76%29.99 "Hg31 mi
7:00 AM23 °FOvercast.17 mph78%29.97 "Hg31 mi
6:00 AM23 °FPartly sunny.16 mph75%29.96 "Hg31 mi
5:00 AM24 °FSunny.18 mph79%29.94 "Hg31 mi
4:00 AM23 °FSunny.15 mph83%29.93 "Hg31 mi
3:00 AM23 °FSunny.23 mph87%29.91 "Hg31 mi
2:00 AM25 °FSunny.21 mph85%29.90 "Hg31 mi
1:00 AM26 °FOvercast.20 mph84%29.89 "Hg31 mi
12:00 AM27 °FOvercast.22 mph82%29.87 "Hg31 mi
11:00 PM
Thu, May 21
28 °FOvercast.26 mph82%29.85 "Hg31 mi
10:00 PM29 °FOvercast.33 mph80%29.81 "Hg31 mi
9:00 PM29 °FPartly sunny.33 mph81%29.80 "Hg14 mi
8:00 PM28 °FScattered clouds.37 mph82%29.77 "Hg25 mi
7:00 PM30 °FRain showers. Partly sunny.36 mph82%29.76 "Hg6 mi
6:00 PM30 °FPartly sunny.36 mph82%29.75 "Hg17 mi
5:00 PM29 °FPartly sunny.36 mph81%29.73 "Hg19 mi
4:00 PM30 °FSprinkles. Overcast.31 mph83%29.74 "Hg28 mi
3:00 PM31 °FSnow flurries. Overcast.26 mph92%29.75 "Hg1 mi
2:00 PM33 °FHeavy snow. Overcast.26 mph87%29.73 "Hg5 mi
1:00 PM34 °FLight snow. Low clouds.26 mph84%29.72 "Hg4 mi
12:00 PM33 °FFreezing rain. Low clouds.24 mph84%29.72 "Hg5 mi
Weather by CustomWeather, © 2015

See weather overviewHow to use our weather pages